Voltar ao catálogo

COSMOS 2251 DEB

AtivoLEO
NORAD 34114·DEBRIS·🇷🇺 Russia

Lançado Jun 16, 1993 de Plesetsk Cosmodrome

Loading…

Próximas Passagens (próximas 24 horas)

TLE

AtualizadoSource: Space-Track

Época: Sep 13, 2026, 01:25 UTC

1 34114U 93036KK  26256.05918525  .00004437  00000-0  90104-3 0  9995
2 34114  74.0547 241.8313 0042644 176.4739 253.9177 14.60880105918028

Acompanhe COSMOS 2251 DEB em tempo real com AllMySat

Download on the App Store